Cheraw, SC

7:39 PM EDT on May 26, 2018 (GMT -0400)
Cheraw

Weather History for KCQW - October, 2011

Change the Weather History Date:

Wednesday, October 19, 2011

  Actual Average (KFLO) Record (KFLO)
Temperature  
Mean Temperature 64 °F -  
Max Temperature 71 °F 74 °F 89 °F (1998)
Min Temperature 60 °F 49 °F 34 °F (1948)
Growing Degree Days 14 (Base 50)    
Moisture  
Dew Point 63 °F    
Average Humidity 99    
Maximum Humidity 100    
Minimum Humidity 94    
Precipitation  
Precipitation 0.36 in - - ()
Sea Level Pressure  
Sea Level Pressure 29.46 in    
Wind  
Wind Speed 6 mph (ENE)    
Max Wind Speed 10 mph    
Max Gust Speed -    
Visibility 5 miles    
Events Rain    
Averages and records for this station are not official NWS values.
T = Trace of Precipitation, MM = Missing Value Source: NWS Daily Summary

Daily Weather History Graph

Daily Weather History Graph

Search for Another Location

Airport or City:

Astronomy

Oct. 19, 2011 Rise Set
Actual Time 7:28 AM EDT 6:40 PM EDT
Civil Twilight 7:03 AM EDT 7:06 PM EDT
Nautical Twilight 6:33 AM EDT 7:35 PM EDT
Astronomical Twilight 6:04 AM EDT 8:04 PM EDT
Moon No Moon Rise 1:52 PM EDT (10/19)
Length of Visible Light 12h 02m
Length of Day
11h 11m
Waning Gibbous, 55% of the Moon is Illuminated
Oct 19
Waning Gibbous
Oct 19
Last Quarter
Oct 26
New
Nov 2
First Quarter
Nov 10
Full

Hourly Weather History & Observations

Time (EDT) Temp. Dew Point Humidity Pressure Visibility Wind Dir Wind Speed Gust Speed Precip Events Conditions
12:15 AM 62.6 °F 62.6 °F 100% 29.64 in 1.8 mi North 10.4 mph - 0.04 in Rain Rain
12:35 AM 60.8 °F 60.8 °F 100% 29.63 in 3.0 mi North 9.2 mph - 0.06 in   Drizzle
1:15 AM 60.8 °F 60.8 °F 100% 29.60 in 4.0 mi NE 8.1 mph - N/A   Overcast
1:35 AM 60.8 °F 60.8 °F 100% 29.60 in 6.0 mi NNE 10.4 mph - N/A   Mostly Cloudy
1:55 AM 60.8 °F 60.8 °F 100% 29.59 in 10.0 mi NE 6.9 mph - N/A   Overcast
2:15 AM 60.8 °F 60.8 °F 100% 29.58 in 10.0 mi NE 5.8 mph - N/A   Overcast
2:35 AM 60.8 °F 60.8 °F 100% 29.57 in 10.0 mi NE 4.6 mph - N/A   Overcast
2:55 AM 60.8 °F 60.8 °F 100% 29.57 in 10.0 mi NNE 3.5 mph - N/A   Light Drizzle
3:15 AM 60.8 °F 60.8 °F 100% 29.56 in 10.0 mi Calm Calm - N/A   Overcast
3:35 AM 60.8 °F 60.8 °F 100% 29.56 in 10.0 mi NNE 3.5 mph - N/A   Overcast
3:55 AM 60.8 °F 60.8 °F 100% 29.55 in 5.0 mi NE 3.5 mph - 0.02 in Rain Rain
4:15 AM 60.8 °F 60.8 °F 100% 29.53 in 6.0 mi ENE 3.5 mph - N/A   Overcast
4:35 AM 60.8 °F 60.8 °F 100% 29.53 in 10.0 mi NE 3.5 mph - N/A   Overcast
4:55 AM 60.8 °F 60.8 °F 100% 29.51 in 10.0 mi NE 5.8 mph - N/A Rain Light Rain
5:15 AM 60.8 °F 60.8 °F 100% 29.51 in 10.0 mi ENE 5.8 mph - N/A   Overcast
6:15 AM 62.6 °F 62.6 °F 100% 29.49 in 4.0 mi ENE 8.1 mph - N/A   Overcast
6:35 AM 62.6 °F 62.6 °F 100% 29.48 in 4.0 mi ENE 8.1 mph - N/A   Light Drizzle
6:55 AM 62.6 °F 62.6 °F 100% 29.47 in 3.0 mi ENE 6.9 mph - N/A   Light Drizzle
7:15 AM 62.6 °F 62.6 °F 100% 29.46 in 5.0 mi ENE 10.4 mph - N/A   Overcast
7:35 AM 62.6 °F 62.6 °F 100% 29.46 in 5.0 mi ENE 9.2 mph - N/A Rain Rain
7:55 AM 60.8 °F 60.8 °F 100% 29.47 in 2.5 mi ENE 8.1 mph - 0.05 in Rain Light Rain
8:15 AM 60.8 °F 60.8 °F 100% 29.46 in 2.0 mi ENE 6.9 mph - N/A   Light Drizzle
8:35 AM 60.8 °F 60.8 °F 100% 29.46 in 1.2 mi NE 9.2 mph - 0.01 in Rain Light Rain
8:55 AM 60.8 °F 60.8 °F 100% 29.47 in 1.5 mi ENE 3.5 mph - 0.23 in Rain Light Rain
9:15 AM 60.8 °F 60.8 °F 100% 29.47 in 1.5 mi NE 5.8 mph - 0.01 in   Heavy Drizzle
9:35 AM 60.8 °F 60.8 °F 100% 29.46 in 1.2 mi NE 6.9 mph - 0.02 in   Drizzle
9:55 AM 60.8 °F 60.8 °F 100% 29.45 in 1.2 mi NE 6.9 mph - 0.02 in   Drizzle
10:15 AM 60.8 °F 60.8 °F 100% 29.44 in 1.5 mi NE 4.6 mph - N/A Rain Light Rain
10:35 AM 62.6 °F 62.6 °F 100% 29.43 in 2.5 mi NE 5.8 mph - N/A   Overcast
10:55 AM 62.6 °F 62.6 °F 100% 29.42 in 1.8 mi NE 5.8 mph - N/A   Light Drizzle
11:15 AM 62.6 °F 62.6 °F 100% 29.41 in 2.0 mi ENE 4.6 mph - N/A   Light Drizzle
11:35 AM 62.6 °F 62.6 °F 100% 29.40 in 3.0 mi NE 3.5 mph - N/A   Light Drizzle
11:55 AM 62.6 °F 62.6 °F 100% 29.40 in 2.5 mi ENE 5.8 mph - N/A   Overcast
12:15 PM 62.6 °F 62.6 °F 100% 29.40 in 5.0 mi East 3.5 mph - N/A   Overcast
12:55 PM 64.4 °F 64.4 °F 100% 29.39 in 9.0 mi ENE 3.5 mph - N/A   Light Drizzle
1:15 PM 64.4 °F 64.4 °F 100% 29.38 in 10.0 mi ESE 3.5 mph - N/A   Overcast
1:35 PM 64.4 °F 64.4 °F 100% 29.38 in 7.0 mi South 3.5 mph - N/A   Overcast
1:55 PM 64.4 °F 64.4 °F 100% 29.37 in 2.0 mi SE 3.5 mph - N/A   Overcast
2:15 PM 64.4 °F 64.4 °F 100% 29.37 in 4.0 mi SSE 3.5 mph - N/A   Overcast
2:35 PM 64.4 °F 64.4 °F 100% 29.36 in 1.0 mi SSE 4.6 mph - N/A   Overcast
2:55 PM 66.2 °F 66.2 °F 100% 29.35 in 1.5 mi South 3.5 mph - N/A   Overcast
3:15 PM 66.2 °F 66.2 °F 100% 29.34 in 6.0 mi Calm Calm - N/A   Overcast
3:35 PM 68.0 °F 68.0 °F 100% 29.34 in 10.0 mi South 5.8 mph - N/A   Overcast
3:55 PM 69.8 °F 68.0 °F 94% 29.33 in 10.0 mi Calm Calm - N/A   Overcast
4:15 PM 69.8 °F 68.0 °F 94% 29.33 in 10.0 mi South 3.5 mph - N/A   Mostly Cloudy
4:35 PM 69.8 °F 68.0 °F 94% 29.33 in 2.0 mi Calm Calm - 0.04 in   Light Drizzle
4:55 PM 69.8 °F 69.8 °F 100% 29.34 in 10.0 mi SSW 5.8 mph - 0.04 in   Mostly Cloudy
5:15 PM 71.6 °F 69.8 °F 94% 29.34 in 10.0 mi SSW 4.6 mph - N/A   Mostly Cloudy
5:35 PM 69.8 °F 66.2 °F 88% 29.36 in 10.0 mi WSW 13.8 mph 28.8 mph N/A   Mostly Cloudy
5:55 PM 66.2 °F 62.6 °F 88% 29.39 in 10.0 mi WSW 13.8 mph 24.2 mph N/A   Overcast
6:15 PM 62.6 °F 57.2 °F 82% 29.41 in 10.0 mi SW 18.4 mph 28.8 mph N/A   Overcast
6:35 PM 60.8 °F 55.4 °F 82% 29.43 in 10.0 mi WSW 15.0 mph 26.5 mph N/A   Overcast
6:55 PM 59.0 °F 53.6 °F 82% 29.44 in 10.0 mi SW 19.6 mph 29.9 mph N/A   Overcast
7:15 PM 57.2 °F 51.8 °F 82% 29.46 in 10.0 mi WSW 12.7 mph 21.9 mph N/A   Mostly Cloudy
7:35 PM 57.2 °F 48.2 °F 72% 29.48 in 10.0 mi WSW 20.7 mph 25.3 mph N/A   Mostly Cloudy
7:55 PM 57.2 °F 48.2 °F 72% 29.49 in 10.0 mi WSW 13.8 mph 18.4 mph N/A   Mostly Cloudy
8:15 PM 55.4 °F 46.4 °F 72% 29.51 in 10.0 mi WSW 16.1 mph 23.0 mph N/A   Scattered Clouds
8:35 PM 55.4 °F 46.4 °F 72% 29.52 in 10.0 mi WSW 12.7 mph - N/A   Partly Cloudy
8:55 PM 55.4 °F 46.4 °F 72% 29.53 in 10.0 mi SW 16.1 mph 20.7 mph N/A   Mostly Cloudy
9:15 PM 55.4 °F 46.4 °F 72% 29.55 in 10.0 mi WSW 12.7 mph 17.3 mph N/A   Overcast
9:35 PM 53.6 °F 44.6 °F 72% 29.56 in 10.0 mi SW 12.7 mph 19.6 mph N/A   Overcast
9:55 PM 53.6 °F 44.6 °F 72% 29.57 in 10.0 mi WSW 18.4 mph 24.2 mph N/A   Overcast
10:15 PM 51.8 °F 44.6 °F 76% 29.58 in 10.0 mi SW 12.7 mph 20.7 mph N/A   Mostly Cloudy
10:35 PM 51.8 °F 42.8 °F 71% 29.59 in 10.0 mi SW 11.5 mph 17.3 mph N/A   Partly Cloudy
10:55 PM 50.0 °F 42.8 °F 76% 29.60 in 10.0 mi SW 13.8 mph - N/A   Clear
11:15 PM 50.0 °F 42.8 °F 76% 29.60 in 10.0 mi SW 15.0 mph - N/A   Clear
11:35 PM 50.0 °F 42.8 °F 76% 29.61 in 10.0 mi SW 10.4 mph 18.4 mph N/A   Clear
11:55 PM 48.2 °F 42.8 °F 82% 29.61 in 10.0 mi SW 11.5 mph 18.4 mph N/A   Clear